Search your local weather  

 

Hazardous Weather Conditions

Wind Advisory issued October 23 at 4:22AM PDT until October 25 at 3:00PM PDT

Current Conditions: LOS ANGELES, CALIFORNIA

Fair


85.0 F

Last Updated on Oct 23 2019, 12:51 pm PDT
Humidity: 30%
Wind Speed: SW 6.9 mph
Barometer 29.88 in
Dewpoint: 50.0 F
Visibility: 10.00 mi
Precip: --
Heat Index: 83 F
Wind Chill: NA
Current conditions at:

Santa Monica, Santa Monica Municipal Airport, CA (KSMO)

Lat: 34.01583 Lon: -118.45139

Local Radar Image active severe weather and emergency alerts image image weather storm and storm spotter reports image weather observation monitoring service image
Local
Radar
Active
Alerts
Storm Reports Weather
Monitoring

5 Day Forecast for LOS ANGELES, CALIFORNIA

Wednesday

Clear

High 91 °F
Wednesday
Night
Clear

Low 64 °F
Thursday

Sunny

High 93 °F
Thursday
Night
Clear

Low 64 °F
Friday

Sunny

High 96 °F
Friday
Night
Clear

Low 64 °F
Saturday

Sunny

High 87 °F
Saturday
Night
Mostly Clear

Low 64 °F
Sunday

Mostly Sunny

High 78 °F

Sign-up For Email & Text Message Weather Alert Notification Services


Advertise Here

Observation History for LOS ANGELES, CALIFORNIA


Time Wind
(mph)
Vis
(mi)
Weather Precip (in) Temperature (F) Relative
Humidity
Wind
Chill
(°F)
Heat
Index
(°F)
Pressure
Air Dwpt altimeter
(in)
sea level
(mb)
12:51 pm PDT SW 6.9 10.00 Fair -- 85.0 50.0 30% NA 83 29.88 1011.6
11:51 am PDT N 0.0 10.00 Fair -- 86.0 44.1 23% NA 83 29.90 1012.1
10:51 am PDT 3.5 10.00 Fair -- 82.0 42.1 24% NA 80 29.91 1012.7
9:51 am PDT E 5.8 10.00 Fair -- 79.0 42.1 27% NA NA 29.92 1013.1
8:51 am PDT E 3.5 10.00 Fair -- 72.0 44.1 37% NA NA 29.92 1012.9
7:51 am PDT E 3.5 10.00 Fair -- 65.0 43.0 45% NA NA 29.90 1012.3
6:51 am PDT E 4.6 10.00 Fair -- 61.0 44.1 54% 61 NA 29.90 1012.3
5:51 am PDT NE 4.6 10.00 Fair -- 62.0 44.1 52% 62 NA 29.90 1012.3
4:51 am PDT NE 4.6 10.00 Fair -- 62.0 46.0 56% 62 NA 29.90 1012.1
3:51 am PDT NE 3.5 10.00 Fair -- 63.0 46.9 56% NA NA 29.90 1012.3
2:51 am PDT E 4.6 10.00 Fair -- 63.0 48.0 58% 64 NA 29.92 1012.9
1:51 am PDT E 4.6 10.00 Fair -- 64.0 50.0 60% NA NA 29.93 1013.3
12:51 am PDT NE 3.5 10.00 Fair -- 65.0 52.0 63% NA NA 29.94 1013.5
11:51 pm PDT N 5.8 10.00 Fair -- 66.0 55.0 68% NA NA 29.95 1014.0
10:51 pm PDT N 0.0 10.00 Fair -- 67.0 55.9 68% NA NA 29.96 1014.5
9:51 pm PDT N 0.0 10.00 Fair -- 67.0 55.9 68% NA NA 29.96 1014.4
8:51 pm PDT N 0.0 10.00 Fair -- 70.0 57.0 64% NA NA 29.96 1014.4
7:51 pm PDT S 3.5 10.00 Fair -- 71.0 57.9 63% NA NA 29.96 1014.3
6:51 pm PDT SW 4.6 10.00 Fair -- 73.0 55.9 55% NA NA 29.96 1014.2
5:51 pm PDT SW 6.9 10.00 Fair -- 76.0 50.0 40% NA NA 29.95 1013.8
3:51 pm PDT SW 6.9 10.00 Fair -- 83.0 44.1 25% NA 81 29.97 1014.8
2:51 pm PDT SW 8.1 10.00 Fair -- 83.0 44.1 25% NA 81 29.98 1015.2
1:51 pm PDT W 6.9 10.00 Fair -- 86.0 42.1 21% NA 83 30.00 1015.6
12:51 pm PDT SW 8.1 10.00 Fair -- 88.0 44.1 22% NA 85 30.03 1016.6

Regional Weather Observation

Los Angeles / USC Campus Downtown, CA (KCQT)

Fair
89.0 F

Burbank - Bob Hope Airport, CA (KBUR)

Fair
88.0 F

Los Angeles, Whiteman Airport, CA (KWHP)

Clear
86.0 F

El Monte, CA (KEMT)

Fair
88.0 F

Los Angeles, Los Angeles International Airport, CA (KLAX)

A Few Clouds
90.0 F

Hawthorne, Hawthorne Municipal Airport, CA (KHHR)

Fair
86.0 F

Advertise Here

Advertise Here